When you browse on this site, cookies collect data to enhance your experience and personalize the content and advertising you see.
Visit our Privacy Policy to learn more. By continuing to use the site, you agree to this use of cookies and data.
  • In Hungary
  • List of Countries
  • For 7 days
  • Water Temperature
  • Satellite Maps
  • Weather Map
  • News
  • Weather Widgets
  • user-avatar
    Login

    Hourly Weather San Antonio

    Today, 21 February, Thursday

    Time Temperature Precipitation Wind Pressure Humidity
    00:00 +10°C° 0 mm 2 mps 742 mmHg 56%
    01:00 +9°C° 0 mm 2 mps 742 mmHg 57%
    02:00 +9°C° 0 mm 2 mps 742 mmHg 59%
    03:00 +9°C° 0 mm 2 mps 742 mmHg 60%
    04:00 +9°C° 0 mm 2 mps 742 mmHg 61%
    05:00 +8°C° 0 mm 2 mps 742 mmHg 63%
    06:00 +9°C° 0 mm 3 mps 742 mmHg 63%
    07:00 +10°C° 0 mm 3 mps 742 mmHg 63%
    08:00 +11°C° 0 mm 3 mps 742 mmHg 63%
    09:00 +12°C° 0 mm 3 mps 743 mmHg 62%
    10:00 +14°C° 0 mm 3 mps 743 mmHg 61%
    11:00 +17°C° 0 mm 3 mps 743 mmHg 60%
    12:00 +17°C° 0 mm 3 mps 742 mmHg 61%
    13:00 +18°C° 0 mm 3 mps 741 mmHg 62%
    14:00 +19°C° 0 mm 3 mps 741 mmHg 63%
    15:00 +18°C° 0 mm 3 mps 740 mmHg 66%
    16:00 +18°C° 0 mm 3 mps 740 mmHg 70%
    17:00 +17°C° 0 mm 3 mps 740 mmHg 74%
    18:00 +16°C° 0 mm 3 mps 741 mmHg 78%
    19:00 +15°C° 0 mm 4 mps 741 mmHg 82%
    20:00 +14°C° 0 mm 4 mps 741 mmHg 86%
    21:00 +14°C° 0 mm 3 mps 741 mmHg 86%
    22:00 +14°C° 0 mm 3 mps 741 mmHg 87%
    23:00 +15°C° 0 mm 2 mps 742 mmHg 88%

    Tomorrow, 22 February, Friday

    Time Temperature Precipitation Wind Pressure Humidity
    00:00 +15°C° 0.1 mm 2 mps 741 mmHg 89%
    01:00 +14°C° 0.1 mm 3 mps 741 mmHg 90%
    02:00 +14°C° 0.1 mm 3 mps 741 mmHg 91%
    03:00 +14°C° 0.1 mm 3 mps 741 mmHg 92%
    04:00 +14°C° 0.1 mm 3 mps 741 mmHg 94%
    05:00 +16°C° 0.1 mm 3 mps 740 mmHg 95%
    06:00 +16°C° 0.1 mm 2 mps 741 mmHg 95%
    07:00 +16°C° 0.1 mm 2 mps 741 mmHg 96%
    08:00 +18°C° 0.1 mm 1 mps 742 mmHg 97%
    09:00 +18°C° 0.1 mm 1 mps 742 mmHg 95%
    10:00 +17°C° 0.1 mm 0 mps 742 mmHg 94%
    11:00 +18°C° 0.1 mm 0 mps 742 mmHg 92%
    12:00 +21°C° 0 mm 1 mps 742 mmHg 86%
    13:00 +23°C° 0 mm 1 mps 741 mmHg 80%
    14:00 +24°C° 0 mm 2 mps 740 mmHg 74%
    15:00 +24°C° 0 mm 2 mps 740 mmHg 76%
    16:00 +24°C° 0 mm 2 mps 740 mmHg 78%
    17:00 +23°C° 0 mm 2 mps 739 mmHg 80%
    18:00 +21°C° 0 mm 2 mps 739 mmHg 86%
    19:00 +20°C° 0 mm 2 mps 740 mmHg 92%
    20:00 +19°C° 0 mm 3 mps 740 mmHg 97%
    21:00 +20°C° 0 mm 4 mps 740 mmHg 97%
    22:00 +20°C° 0 mm 5 mps 739 mmHg 97%
    23:00 +21°C° 0 mm 6 mps 739 mmHg 97%

    Day after tomorrow, 23 February, Saturday

    Time Temperature Precipitation Wind Pressure Humidity
    00:00 +21°C° 0.1 mm 5 mps 739 mmHg 97%
    01:00 +21°C° 0.1 mm 4 mps 738 mmHg 97%
    02:00 +21°C° 0.1 mm 3 mps 738 mmHg 97%
    03:00 +21°C° 0.3 mm 3 mps 739 mmHg 96%
    04:00 +21°C° 0.3 mm 3 mps 739 mmHg 95%
    05:00 +21°C° 0.3 mm 3 mps 740 mmHg 94%
    06:00 +20°C° 0 mm 5 mps 741 mmHg 76%
    07:00 +18°C° 0 mm 7 mps 742 mmHg 57%
    08:00 +17°C° 0 mm 9 mps 743 mmHg 39%
    09:00 +18°C° 0 mm 9 mps 744 mmHg 32%
    10:00 +19°C° 0 mm 9 mps 744 mmHg 26%
    11:00 +21°C° 0 mm 9 mps 745 mmHg 19%
    12:00 +21°C° 0 mm 8 mps 744 mmHg 19%
    13:00 +22°C° 0 mm 8 mps 744 mmHg 18%
    14:00 +22°C° 0 mm 7 mps 743 mmHg 18%
    15:00 +22°C° 0 mm 6 mps 744 mmHg 20%
    16:00 +21°C° 0 mm 5 mps 744 mmHg 22%
    17:00 +20°C° 0 mm 4 mps 744 mmHg 24%
    18:00 +19°C° 0 mm 3 mps 745 mmHg 24%
    19:00 +18°C° 0 mm 3 mps 745 mmHg 23%
    20:00 +17°C° 0 mm 2 mps 746 mmHg 22%
    21:00 +16°C° 0 mm 2 mps 746 mmHg 22%
    22:00 +16°C° 0 mm 2 mps 747 mmHg 22%
    23:00 +15°C° 0 mm 2 mps 747 mmHg 22%

    24 February, Sunday

    Time Temperature Precipitation Wind Pressure Humidity
    00:00 +15°C° 0 mm 2 mps 747 mmHg 22%
    01:00 +14°C° 0 mm 2 mps 747 mmHg 21%
    02:00 +14°C° 0 mm 2 mps 747 mmHg 21%
    03:00 +12°C° 0 mm 3 mps 747 mmHg 24%
    04:00 +12°C° 0 mm 3 mps 748 mmHg 26%
    05:00 +11°C° 0 mm 3 mps 748 mmHg 29%
    06:00 +12°C° 0 mm 4 mps 749 mmHg 32%
    07:00 +13°C° 0 mm 4 mps 750 mmHg 36%
    08:00 +13°C° 0 mm 5 mps 750 mmHg 39%
    09:00 +15°C° 0 mm 5 mps 750 mmHg 35%
    10:00 +16°C° 0 mm 5 mps 750 mmHg 32%
    11:00 +19°C° 0 mm 5 mps 750 mmHg 28%
    12:00 +20°C° 0 mm 5 mps 750 mmHg 28%
    13:00 +20°C° 0 mm 5 mps 749 mmHg 27%
    14:00 +21°C° 0 mm 4 mps 748 mmHg 27%
    15:00 +20°C° 0 mm 4 mps 748 mmHg 31%
    16:00 +19°C° 0 mm 4 mps 748 mmHg 36%
    17:00 +18°C° 0 mm 4 mps 748 mmHg 40%
    18:00 +17°C° 0 mm 4 mps 748 mmHg 43%
    19:00 +15°C° 0 mm 4 mps 749 mmHg 46%
    20:00 +14°C° 0 mm 3 mps 749 mmHg 49%
    21:00 +13°C° 0 mm 3 mps 749 mmHg 50%
    22:00 +12°C° 0 mm 3 mps 749 mmHg 52%
    23:00 +12°C° 0 mm 3 mps 749 mmHg 54%

    25 February, Monday

    Time Temperature Precipitation Wind Pressure Humidity
    00:00 +11°C° 0 mm 3 mps 749 mmHg 55%
    01:00 +11°C° 0 mm 3 mps 749 mmHg 56%
    02:00 +10°C° 0 mm 3 mps 749 mmHg 57%
    03:00 +10°C° 0 mm 3 mps 749 mmHg 57%
    04:00 +10°C° 0 mm 3 mps 749 mmHg 56%
    05:00 +10°C° 0 mm 3 mps 750 mmHg 56%
    06:00 +10°C° 0 mm 4 mps 750 mmHg 54%
    07:00 +10°C° 0 mm 5 mps 750 mmHg 53%
    08:00 +12°C° 0 mm 5 mps 751 mmHg 51%
    09:00 +13°C° 0 mm 5 mps 751 mmHg 51%
    10:00 +15°C° 0 mm 5 mps 751 mmHg 51%
    11:00 +16°C° 0 mm 5 mps 750 mmHg 51%
    12:00 +17°C° 0 mm 6 mps 750 mmHg 52%
    13:00 +19°C° 0 mm 6 mps 749 mmHg 53%
    14:00 +20°C° 0 mm 6 mps 748 mmHg 54%
    15:00 +19°C° 0 mm 6 mps 748 mmHg 60%
    16:00 +17°C° 0 mm 6 mps 748 mmHg 65%
    17:00 +15°C° 0 mm 5 mps 748 mmHg 71%
    18:00 +15°C° 0 mm 5 mps 748 mmHg 73%
    19:00 +14°C° 0 mm 5 mps 749 mmHg 75%
    20:00 +13°C° 0 mm 5 mps 749 mmHg 78%
    21:00 +13°C° 0.1 mm 5 mps 749 mmHg 80%
    22:00 +13°C° 0.1 mm 5 mps 749 mmHg 83%
    23:00 +13°C° 0.1 mm 4 mps 749 mmHg 85%

    26 February, Tuesday

    Time Temperature Precipitation Wind Pressure Humidity
    00:00 +13°C° 0.2 mm 4 mps 748 mmHg 87%
    01:00 +13°C° 0.2 mm 3 mps 748 mmHg 88%
    02:00 +13°C° 0.2 mm 3 mps 747 mmHg 90%
    03:00 +13°C° 0.2 mm 3 mps 747 mmHg 91%
    04:00 +13°C° 0.2 mm 3 mps 747 mmHg 92%
    05:00 +13°C° 0.2 mm 4 mps 747 mmHg 93%
    06:00 +14°C° 0 mm 4 mps 747 mmHg 92%
    07:00 +14°C° 0 mm 3 mps 747 mmHg 92%
    08:00 +14°C° 0 mm 3 mps 748 mmHg 91%
    09:00 +16°C° 0.2 mm 3 mps 748 mmHg 92%
    10:00 +16°C° 0.2 mm 3 mps 747 mmHg 92%
    11:00 +16°C° 0.2 mm 3 mps 747 mmHg 92%
    12:00 +16°C° 0.2 mm 3 mps 746 mmHg 92%
    13:00 +17°C° 0.2 mm 3 mps 746 mmHg 91%
    14:00 +17°C° 0.2 mm 3 mps 745 mmHg 91%
    15:00 +17°C° 0 mm 3 mps 745 mmHg 91%
    16:00 +17°C° 0 mm 2 mps 745 mmHg 92%
    17:00 +18°C° 0 mm 2 mps 745 mmHg 92%
    18:00 +17°C° 0 mm 2 mps 745 mmHg 94%
    19:00 +17°C° 0 mm 2 mps 745 mmHg 95%
    20:00 +17°C° 0 mm 2 mps 745 mmHg 96%
    21:00 +17°C° 0 mm 2 mps 745 mmHg 97%
    22:00 +18°C° 0 mm 1 mps 745 mmHg 97%
    23:00 +18°C° 0 mm 1 mps 745 mmHg 98%
    Show more